{"data":{"norad_id":53996,"epoch":"2026-05-24T15:49:29.393472Z","epoch_age_seconds":104461,"freshness":"FRESH","line1":"1 53996U 22125AJ  26144.65936798 -.00000480  00000+0 -12099-4 0  9992","line2":"2 53996  53.2156 232.9168 0001198  91.8640 268.2490 15.08835466200935","mean_motion":15.08835466,"eccentricity":0.0001198,"inclination_deg":53.2156,"raan_deg":232.9168,"arg_perigee_deg":91.864,"mean_anomaly_deg":268.249,"bstar":-1.2099e-5,"rev_number":20093,"period_min":95.437841464418,"perigee_km":538.92848389209,"apogee_km":540.58601135382,"semimajor_km":6917.894247623,"source":"CELESTRAK","updated_at":"2026-05-25T13:38:17.622923Z"}}